ZUUU

Chengdu

Airport
ICAO code
ZUUU
Summary
ICAO Region
APAC
ICAO Territory
Location

Shuangliu County, Chengdu,

Coordinates
30° 34' 43" N , 103° 56' 49" E
KCC
Metar
ZUUU 242000Z VRB01MPS CAVOK 22/19 Q1011 NOSIG

Description

Chengdu Shuangliu International Airport is the major airport in Chengdu, China. It is located in the north of Shuangliu County, about 16 km southwest of downtown Chengdu.

Climatology

Warm continental climate/Humid continental climate (Köppen climate classification Dwa)

Airport map

Aerial View

SKYbrary Partners:

Safety knowledge contributed by: